[[{"header":{"parameterUnit":"m.s-1","parameterCategory":1,"la1":30.2991,"la2":30.254,"lo1":-89.0895,"lo2":-89.0444,"dy":0.0017,"dx":0.0017,"nx":28,"ny":28,"refTime":"2024-05-03T03:00:00:Z","depth":0,"parameterNumber":2,"parameterNumberName":"U-component_of_WINDS"},"data":[0,0,0,0,0,0,0,0,0,0,0,0,0,0,0,0,0,0,0,0,0,0,0,0,0,0,0,0,0,0,0,0,0,0,0,0,0,0,0,0,0,0,0,0,0,0,0,0,0,0,0,0,0,0,0,0,0,0,-2.4759,-2.4759,0,-2.4771,-2.4771,-2.4771,-2.472,-2.4718,-2.4717,-2.4716,-2.4728,-2.4729,-2.4731,0,0,0,0,0,0,0,0,0,0,0,0,0,-2.4689,-2.4691,-2.4759,-2.4759,-2.4759,-2.4771,-2.4771,-2.4771,-2.472,-2.4718,-2.4717,-2.4715,-2.4727,-2.4729,-2.4731,0,0,0,0,0,0,0,0,0,0,0,0,0,-2.4713,-2.4691,-2.4758,-2.4735,-2.4733,-2.4771,-2.4771,-2.4772,-2.4721,-2.4718,-2.4716,-2.4714,-2.4726,-2.4729,-2.4731,-2.4793,0,0,-2.4739,-2.4741,0,0,0,0,0,0,0,0,-2.4711,-2.4715,-2.4738,-2.4736,-2.4734,-2.4742,-2.4751,-2.4779,-2.4721,-2.4725,-2.4715,-2.4713,-2.4734,-2.4736,-2.4743,-2.4794,-2.4794,-2.474,-2.4741,-2.4742,-2.4743,0,0,0,0,0,0,0,-2.471,-2.4714,-2.4763,-2.4738,-2.4736,-2.4723,-2.4724,-2.4756,-2.4742,-2.4725,-2.4721,-2.4723,-2.4733,-2.4741,-2.4743,-2.4794,-2.474,-2.4742,-2.4743,-2.4745,-2.4895,-2.4898,0,0,0,0,0,0,-2.4711,-2.4713,-2.4763,-2.4764,-2.4717,-2.4726,-2.4727,-2.4742,-2.4742,-2.474,-2.4725,-2.4721,-2.4738,-2.474,-2.4743,-2.4815,-2.4742,-2.4745,-2.4746,-2.4893,-2.4896,-2.4899,0,0,0,0,0,0,-2.471,-2.4716,-2.4763,-2.4738,-2.4742,-2.473,-2.4747,-2.4743,-2.4751,-2.4742,-2.4739,-2.4736,-2.4736,-2.474,-2.4781,-2.4815,-2.4746,-2.4748,-2.489,-2.4894,-2.4897,-2.4959,0,0,0,0,0,0,-2.4708,-2.4716,-2.4739,-2.4738,-2.4744,-2.48,-2.4749,-2.4745,-2.4756,-2.475,-2.4752,-2.475,-2.4734,-2.4777,-2.4784,-2.4817,-2.475,-2.4887,-2.4892,-2.4896,-2.4954,-2.4964,-2.4973,0,0,0,0,0,-2.4706,-2.4756,-2.4741,-2.4747,-2.4773,-2.4802,-2.4805,-2.4787,-2.4759,-2.4782,-2.4776,-2.475,-2.481,-2.4782,-2.4789,-2.4823,-2.4885,-2.489,-2.4896,-2.4949,-2.4962,-2.4973,0,0,0,0,0,0,-2.4761,-2.4755,-2.4739,-2.479,-2.4797,-2.4794,-2.4822,-2.4801,-2.4816,-2.481,-2.4786,-2.4787,-2.4833,-2.4832,-2.4801,-2.4883,-2.4843,-2.485,-2.4881,-2.4893,-2.4903,-2.4901,-2.4752,0,0,0,0,0,-2.4779,-2.4804,-2.4798,-2.4843,-2.4848,-2.4835,-2.4847,-2.4832,-2.4838,-2.4841,-2.4838,-2.4845,-2.4866,-2.4879,-2.4898,-2.4954,-2.4953,-2.4981,-2.4991,-2.4999,-2.5005,-2.5034,-2.5046,-2.4917,-2.4917,-2.4917,0,0,-2.4816,-2.4817,-2.4834,-2.4854,-2.4858,-2.4884,-2.4837,-2.4867,-2.4885,-2.4845,-2.4884,-2.4882,-2.4889,-2.4937,-2.4959,-2.4938,-2.5041,-2.5006,-2.5012,-2.5014,-2.5041,-2.5053,-2.5064,-2.492,-2.492,-2.4919,0,0,-2.4898,-2.4901,-2.4939,-2.4944,-2.4951,-2.4942,-2.4951,-2.4951,-2.4948,-2.4987,-2.4958,-2.498,-2.5016,-2.5021,-2.5029,-2.5113,-2.5089,-2.512,-2.517,-2.5199,-2.5209,-2.5218,-2.5247,-2.5258,-2.5126,-2.5126,-2.5126,0,-2.4943,-2.4981,-2.4961,-2.4993,-2.5003,-2.4968,-2.5007,-2.5012,-2.5025,-2.5032,-2.501,-2.5054,-2.5056,-2.5105,-2.5126,-2.5134,-2.5143,-2.5119,-2.5209,-2.5218,-2.5226,-2.5254,-2.5265,-2.513,-2.5129,-2.5129,-2.5129,0,-2.5037,-2.5063,-2.5094,-2.5107,-2.512,-2.5155,-2.514,-2.5156,-2.5141,-2.5134,-2.5174,-2.5175,-2.5193,-2.5204,-2.5189,-2.5252,-2.5239,-2.5213,-2.5172,-2.5242,-2.5268,-2.5278,-2.5135,-2.5134,-2.5133,-2.5132,0,0,-2.5151,-2.5154,-2.5165,-2.5171,-2.5176,-2.5196,-2.5229,-2.5247,-2.5261,-2.5271,-2.5298,-2.533,-2.5306,-2.5315,-2.53,-2.5326,-2.5392,-2.5297,-2.5297,-2.5314,-2.546,-2.5479,-2.5492,-2.5377,-2.5379,-2.538,-2.546,0,-2.5231,-2.5288,-2.5271,-2.5329,-2.5353,-2.5321,-2.535,-2.5356,-2.5351,-2.5371,-2.5365,-2.5388,-2.5355,-2.536,-2.5384,-2.5379,-2.5421,-2.5373,-2.5401,-2.5402,-2.5399,-2.5505,-2.5525,-2.56,-2.547,-2.5471,-2.5472,0,-2.533,-2.5345,-2.5404,-2.5406,-2.5415,-2.5441,-2.5457,-2.5476,-2.5483,-2.5477,-2.5487,-2.5468,-2.55,-2.546,-2.5504,-2.5472,-2.5483,-2.5482,-2.5485,-2.5486,-2.5441,-2.5508,-2.5623,-2.5634,-2.5488,-2.5487,-2.5486,0,-2.5407,-2.5442,-2.5482,-2.5487,-2.549,-2.5509,-2.5511,-2.5515,-2.5527,-2.5541,-2.5548,-2.5565,-2.5574,-2.5588,-2.5573,-2.5546,-2.562,-2.5578,-2.5616,-2.5616,-2.5632,-2.5631,-2.5749,-2.564,-2.564,-2.564,-2.564,0,-2.5497,-2.5535,-2.5516,-2.5541,-2.5582,-2.5563,-2.5604,-2.5602,-2.5607,-2.563,-2.5604,-2.5626,-2.5606,-2.5627,-2.5616,-2.5654,-2.5659,-2.5655,-2.5651,-2.5657,-2.5657,-2.5662,-2.5656,-2.5643,-2.5642,-2.5642,-2.5641,0,-2.5589,-2.5579,-2.562,-2.562,-2.562,-2.5651,-2.565,-2.5672,-2.5666,-2.5696,-2.5702,-2.5692,-2.5715,-2.5702,-2.5726,-2.5718,-2.5768,-2.5757,-2.5765,-2.5762,-2.58,-2.5796,-2.5925,-2.5941,-2.5823,-2.5824,-2.5825,0,-2.5647,-2.5675,-2.5678,-2.5692,-2.5696,-2.5719,-2.5731,-2.5713,-2.5727,-2.5737,-2.5758,-2.5779,-2.5795,-2.5833,-2.5828,-2.5846,-2.5835,-2.5879,-2.5837,-2.5842,-2.5835,-2.5833,-2.5835,-2.5887,-2.5888,-2.589,-2.589,0,-2.575,-2.5743,-2.5762,-2.5779,-2.5794,-2.5807,-2.5817,-2.583,-2.5813,-2.583,-2.5853,-2.5865,-2.589,-2.5911,-2.5926,-2.5928,-2.5906,-2.5904,-2.5913,-2.5918,-2.5922,-2.592,-2.5787,-2.5901,-2.59,-2.5899,-2.5898,-2.5898,-2.5826,-2.5849,-2.5855,-2.5877,-2.5883,-2.5893,-2.5914,-2.5911,-2.593,-2.5949,-2.5937,-2.5965,-2.5971,-2.5989,-2.5994,-2.6015,-2.5997,-2.6011,-2.6014,-2.6018,-2.6023,-2.5919,-2.6018,-2.6018,-2.6017,-2.6017,-2.6017,0,-2.5927,-2.5929,-2.5949,-2.5965,-2.5982,-2.5961,-2.5971,-2.5987,-2.6011,-2.6019,-2.6035,-2.6062,-2.6082,-2.6079,-2.6097,-2.6115,-2.6105,-2.612,-2.6118,-2.6119,-2.6038,-2.6027,-2.6127,-2.6127,-2.6127,-2.6127,-2.6127,-2.6127,-2.5981,-2.602,-2.6014,-2.6055,-2.6057,-2.6084,-2.6092,-2.6101,-2.6107,-2.6138,-2.6155,-2.6153,-2.6156,-2.6175,-2.6192,-2.6191,-2.6198,-2.6217,-2.6211,-2.6135,-2.6125,-2.6114,-2.6104,-2.6219,-2.6219,-2.629,-2.6291,-2.6292]},{"header":{"parameterUnit":"m.s-1","parameterCategory":1,"la1":30.2991,"la2":30.254,"lo1":-89.0895,"lo2":-89.0444,"dy":0.0017,"dx":0.0017,"nx":28,"ny":28,"refTime":"2024-05-03T03:00:00:Z","depth":0,"parameterNumber":3,"parameterNumberName":"V-component_of_WINDS"},"data":[0,0,0,0,0,0,0,0,0,0,0,0,0,0,0,0,0,0,0,0,0,0,0,0,0,0,0,0,0,0,0,0,0,0,0,0,0,0,0,0,0,0,0,0,0,0,0,0,0,0,0,0,0,0,0,0,0,0,3.8876,3.8876,0,3.8887,3.8887,3.8887,3.8846,3.8844,3.8843,3.8842,3.8851,3.8852,3.8853,0,0,0,0,0,0,0,0,0,0,0,0,0,3.8819,3.882,3.8876,3.8876,3.8876,3.8887,3.8887,3.8887,3.8846,3.8844,3.8843,3.8841,3.885,3.8852,3.8854,0,0,0,0,0,0,0,0,0,0,0,0,0,3.8838,3.8821,3.8876,3.8857,3.8855,3.8887,3.8887,3.8887,3.8846,3.8844,3.8842,3.8841,3.885,3.8852,3.8854,3.8903,0,0,3.886,3.8861,0,0,0,0,0,0,0,0,3.8837,3.884,3.886,3.8858,3.8857,3.8863,3.887,3.8892,3.8847,3.885,3.8842,3.884,3.8856,3.8858,3.8863,3.8903,3.8904,3.886,3.8861,3.8862,3.8863,0,0,0,0,0,0,0,3.8836,3.884,3.888,3.886,3.8858,3.8848,3.8848,3.8874,3.8863,3.8849,3.8846,3.8848,3.8855,3.8862,3.8863,3.8904,3.886,3.8862,3.8863,3.8864,3.8987,3.8989,0,0,0,0,0,0,3.8837,3.8839,3.888,3.888,3.8842,3.885,3.8851,3.8863,3.8863,3.8861,3.885,3.8846,3.8859,3.8861,3.8864,3.8922,3.8862,3.8864,3.8865,3.8985,3.8987,3.8989,0,0,0,0,0,0,3.8836,3.8841,3.8879,3.8859,3.8863,3.8853,3.8867,3.8864,3.887,3.8863,3.8861,3.8859,3.8858,3.8861,3.8894,3.8922,3.8865,3.8867,3.8982,3.8985,3.8988,3.9039,0,0,0,0,0,0,3.8835,3.8841,3.886,3.886,3.8864,3.891,3.8868,3.8865,3.8874,3.887,3.8871,3.8869,3.8856,3.8891,3.8896,3.8923,3.8869,3.898,3.8984,3.8987,3.9035,3.9043,3.9051,0,0,0,0,0,3.8833,3.8873,3.8861,3.8866,3.8887,3.8912,3.8914,3.8899,3.8877,3.8895,3.8891,3.8869,3.8918,3.8895,3.89,3.8929,3.8978,3.8982,3.8987,3.9031,3.9042,3.905,0,0,0,0,0,0,3.8874,3.8872,3.8859,3.89,3.8907,3.8905,3.8927,3.8911,3.8923,3.8918,3.8899,3.8899,3.8936,3.8936,3.891,3.8977,3.8944,3.895,3.8976,3.8986,3.8994,3.8993,3.887,0,0,0,0,0,3.8889,3.8909,3.8906,3.8942,3.8947,3.8937,3.8947,3.8935,3.8941,3.8943,3.8941,3.8946,3.8963,3.8975,3.899,3.9035,3.9035,3.9057,3.9065,3.9072,3.9077,3.9102,3.9112,3.9004,3.9004,3.9004,0,0,3.8918,3.8919,3.8933,3.8951,3.8954,3.8976,3.8939,3.8963,3.8979,3.8946,3.8978,3.8977,3.8982,3.9022,3.904,3.9023,3.9107,3.9078,3.9083,3.9084,3.9108,3.9118,3.9127,3.9007,3.9007,3.9006,0,0,3.8981,3.8985,3.9016,3.9021,3.9028,3.9022,3.903,3.9031,3.9029,3.9061,3.9038,3.9056,3.9085,3.9091,3.9097,3.9167,3.9147,3.9172,3.9213,3.9238,3.9246,3.9254,3.9279,3.9288,3.9177,3.9177,3.9177,0,3.9016,3.9048,3.9034,3.906,3.9069,3.9043,3.9075,3.908,3.9091,3.9098,3.908,3.9117,3.9119,3.916,3.9177,3.9183,3.9192,3.9171,3.9246,3.9254,3.926,3.9284,3.9294,3.918,3.918,3.918,3.9179,0,3.9091,3.9114,3.9138,3.9152,3.9164,3.9192,3.9183,3.9197,3.9185,3.9181,3.9214,3.9216,3.9232,3.9241,3.9229,3.9281,3.9271,3.925,3.9216,3.9274,3.9296,3.9305,3.9185,3.9183,3.9183,3.9182,0,0,3.9178,3.9186,3.9195,3.9202,3.9209,3.9226,3.9254,3.9271,3.9283,3.9293,3.9316,3.9343,3.9324,3.9332,3.9321,3.9342,3.9398,3.9319,3.9319,3.9333,3.9457,3.9472,3.9483,3.9386,3.9388,3.9389,3.9456,0,3.9241,3.9291,3.928,3.9329,3.935,3.9327,3.9352,3.9359,3.9357,3.9374,3.9371,3.9391,3.9365,3.9369,3.939,3.9387,3.9422,3.9382,3.9407,3.9408,3.9406,3.9494,3.951,3.9573,3.9465,3.9466,3.9467,0,3.932,3.9335,3.9386,3.9392,3.94,3.9423,3.9438,3.9456,3.9464,3.9461,3.9471,3.9456,3.9485,3.9452,3.9491,3.9464,3.9474,3.9474,3.9476,3.9477,3.944,3.9497,3.9593,3.9602,3.948,3.9479,3.9478,0,3.9379,3.9412,3.9447,3.9453,3.9461,3.9477,3.9481,3.9488,3.9499,3.9513,3.952,3.9536,3.9545,3.9558,3.9548,3.9525,3.9589,3.9555,3.9587,3.9588,3.9601,3.96,3.9699,3.9608,3.9608,3.9608,3.9608,0,3.945,3.9482,3.9474,3.9495,3.9531,3.952,3.9555,3.9556,3.9563,3.9584,3.9565,3.9585,3.9572,3.9591,3.9584,3.9618,3.9622,3.962,3.9617,3.9621,3.9621,3.9627,3.9622,3.961,3.961,3.9609,3.9609,0,3.9521,3.9517,3.9554,3.9559,3.9561,3.9588,3.9592,3.9612,3.961,3.9637,3.9643,3.9638,3.966,3.9653,3.9675,3.9671,3.9714,3.9706,3.9712,3.9709,3.9742,3.9739,3.9847,3.9861,3.9762,3.9763,3.9764,0,3.9566,3.9591,3.96,3.9614,3.962,3.9642,3.9654,3.9644,3.9657,3.967,3.9689,3.971,3.9726,3.9762,3.9761,3.9779,3.9771,3.9808,3.9773,3.9777,3.9771,3.977,3.9772,3.9814,3.9815,3.9816,3.9817,0,3.9647,3.9644,3.9663,3.9683,3.9699,3.9713,3.9725,3.9737,3.9728,3.9744,3.9768,3.978,3.9805,3.9826,3.9843,3.9846,3.983,3.9828,3.9836,3.984,3.9843,3.9842,3.973,3.9825,3.9824,3.9824,3.9823,3.9823,3.9706,3.9728,3.9738,3.9761,3.977,3.9782,3.9802,3.9804,3.9823,3.9844,3.9837,3.9863,3.9873,3.9894,3.99,3.9921,3.9906,3.9918,3.9921,3.9924,3.9928,3.984,3.9923,3.9923,3.9923,3.9923,3.9923,0,3.9785,3.9792,3.9813,3.9832,3.9851,3.9836,3.985,3.9866,3.989,3.9901,3.9918,3.9945,3.9966,3.9968,3.9987,4.0004,3.9997,4.0009,4.0007,4.0009,3.994,3.9931,4.0014,4.0014,4.0014,4.0014,4.0014,4.0014,3.9829,3.9865,3.9865,3.9906,3.9912,3.9939,3.9948,3.996,3.9969,4.0001,4.0019,4.0021,4.0028,4.0048,4.0067,4.0067,4.0075,4.009,4.0087,4.0022,4.0013,4.0004,3.9996,4.0092,4.0092,4.0154,4.0154,4.0155]}]]